Time,TemperatureF,DewpointF,PressureIn,WindDirection,WindDirectionDegrees,WindSpeedMPH,WindSpeedGustMPH,Humidity,HourlyPrecipIn,Conditions,Clouds,dailyrainin,SolarRadiationWatts/m^2,SoftwareType,DateUTC
2013-03-04 00:01:00,25.0,14.0,-100.00,West,264,2.0,10.0,62,0.00,,,0.08,0.000000,,2013-03-04 05:01:00,
2013-03-04 00:32:00,23.0,14.0,-100.00,ENE,74,2.0,4.0,69,0.00,,,0.08,0.000000,,2013-03-04 05:32:00,
2013-03-04 00:43:00,23.0,14.0,-100.00,ENE,74,2.0,4.0,69,0.00,,,0.08,0.000000,,2013-03-04 05:43:00,
2013-03-04 00:52:00,23.0,14.0,-100.00,ENE,74,2.0,4.0,69,0.00,,,0.08,0.000000,,2013-03-04 05:52:00,
2013-03-04 01:02:00,23.0,14.0,-100.00,ENE,74,2.0,4.0,69,0.00,,,0.08,0.000000,,2013-03-04 06:02:00,
2013-03-04 01:32:00,22.0,17.0,-100.00,ENE,78,1.0,6.0,80,0.00,,,0.08,0.000000,,2013-03-04 06:32:00,
2013-03-04 01:42:00,22.0,17.0,-100.00,ENE,78,1.0,6.0,80,0.00,,,0.08,0.000000,,2013-03-04 06:42:00,
2013-03-04 01:52:00,22.0,17.0,-100.00,ENE,78,1.0,6.0,80,0.00,,,0.08,0.000000,,2013-03-04 06:52:00,
2013-03-04 02:02:00,22.0,17.0,-100.00,ENE,78,1.0,6.0,80,0.00,,,0.08,0.000000,,2013-03-04 07:02:00,
2013-03-04 02:32:00,20.0,17.0,-100.00,ESE,108,3.0,7.0,87,0.00,,,0.08,0.000000,,2013-03-04 07:32:00,
2013-03-04 02:42:00,20.0,17.0,-100.00,ESE,108,3.0,7.0,87,0.00,,,0.08,0.000000,,2013-03-04 07:42:00,
2013-03-04 02:52:00,20.0,17.0,-100.00,ESE,108,3.0,7.0,87,0.00,,,0.08,0.000000,,2013-03-04 07:52:00,
2013-03-04 03:02:00,20.0,17.0,-100.00,ESE,108,3.0,7.0,87,0.00,,,0.08,0.000000,,2013-03-04 08:02:00,
2013-03-04 03:32:00,19.0,16.0,-100.00,ENE,78,3.0,6.0,89,0.00,,,0.08,0.000000,,2013-03-04 08:32:00,
2013-03-04 03:42:00,19.0,16.0,-100.00,ENE,78,3.0,6.0,89,0.00,,,0.08,0.000000,,2013-03-04 08:42:00,
2013-03-04 03:52:00,19.0,16.0,-100.00,ENE,78,3.0,6.0,89,0.00,,,0.08,0.000000,,2013-03-04 08:52:00,
2013-03-04 04:02:00,19.0,16.0,-100.00,ENE,78,3.0,6.0,89,0.00,,,0.08,0.000000,,2013-03-04 09:02:00,
2013-03-04 04:32:00,19.0,17.0,-100.00,ENE,76,3.0,9.0,91,0.00,,,0.08,0.000000,,2013-03-04 09:32:00,
2013-03-04 04:42:00,19.0,17.0,-100.00,ENE,76,3.0,9.0,91,0.00,,,0.08,0.000000,,2013-03-04 09:42:00,
2013-03-04 04:52:00,19.0,17.0,-100.00,ENE,76,3.0,9.0,91,0.00,,,0.08,0.000000,,2013-03-04 09:52:00,
2013-03-04 05:01:00,19.0,17.0,-100.00,ENE,76,3.0,9.0,91,0.00,,,0.08,0.000000,,2013-03-04 10:01:00,
2013-03-04 05:32:00,18.0,16.0,-100.00,East,81,3.0,6.0,92,0.00,,,0.08,0.000000,,2013-03-04 10:32:00,
2013-03-04 05:42:00,18.0,16.0,-100.00,East,81,3.0,6.0,92,0.00,,,0.08,0.000000,,2013-03-04 10:42:00,
2013-03-04 05:52:00,18.0,16.0,-100.00,East,81,3.0,6.0,92,0.00,,,0.08,0.000000,,2013-03-04 10:52:00,
2013-03-04 06:02:00,18.0,16.0,-100.00,East,81,3.0,6.0,92,0.00,,,0.08,0.000000,,2013-03-04 11:02:00,
2013-03-04 06:32:00,18.0,16.0,-100.00,East,101,2.0,6.0,91,0.00,,,0.08,0.000000,,2013-03-04 11:32:00,
2013-03-04 06:42:00,18.0,16.0,-100.00,East,101,2.0,6.0,91,0.00,,,0.08,0.000000,,2013-03-04 11:42:00,
2013-03-04 06:52:00,18.0,16.0,-100.00,East,101,2.0,6.0,91,0.00,,,0.08,0.000000,,2013-03-04 11:52:00,
2013-03-04 07:02:00,18.0,16.0,-100.00,East,101,2.0,6.0,91,0.00,,,0.08,0.000000,,2013-03-04 12:02:00,
2013-03-04 07:32:00,17.0,15.0,-100.00,ENE,76,3.0,6.0,90,0.00,,,0.08,1.000000,,2013-03-04 12:32:00,
2013-03-04 07:43:00,17.0,15.0,-100.00,ENE,76,3.0,6.0,90,0.00,,,0.08,1.000000,,2013-03-04 12:43:00,
2013-03-04 07:53:00,17.0,15.0,-100.00,ENE,76,3.0,6.0,90,0.00,,,0.08,1.000000,,2013-03-04 12:53:00,
2013-03-04 08:02:00,17.0,15.0,-100.00,ENE,76,3.0,6.0,90,0.00,,,0.08,1.000000,,2013-03-04 13:02:00,
2013-03-04 08:32:00,19.0,17.0,-100.00,SE,146,0.0,6.0,90,0.00,,,0.08,31.000000,,2013-03-04 13:32:00,
2013-03-04 08:42:00,19.0,17.0,-100.00,SE,146,0.0,6.0,90,0.00,,,0.08,31.000000,,2013-03-04 13:42:00,
2013-03-04 08:52:00,19.0,17.0,-100.00,SE,146,0.0,6.0,90,0.00,,,0.08,31.000000,,2013-03-04 13:52:00,
2013-03-04 09:01:00,19.0,17.0,-100.00,SE,146,0.0,6.0,90,0.00,,,0.08,31.000000,,2013-03-04 14:01:00,
2013-03-04 09:32:00,30.0,25.0,-100.00,East,92,1.0,3.0,82,0.00,,,0.08,233.000000,,2013-03-04 14:32:00,
2013-03-04 09:42:00,30.0,25.0,-100.00,East,92,1.0,3.0,82,0.00,,,0.08,233.000000,,2013-03-04 14:42:00,
2013-03-04 09:52:00,30.0,25.0,-100.00,East,92,1.0,3.0,82,0.00,,,0.08,233.000000,,2013-03-04 14:52:00,
2013-03-04 10:02:00,30.0,25.0,-100.00,East,92,1.0,3.0,82,0.00,,,0.08,233.000000,,2013-03-04 15:02:00,
2013-03-04 10:32:00,40.0,19.0,-100.00,SW,236,2.0,5.0,43,0.00,,,0.06,577.000000,,2013-03-04 15:32:00,
2013-03-04 10:42:00,40.0,19.0,-100.00,SW,236,2.0,5.0,43,0.00,,,0.06,577.000000,,2013-03-04 15:42:00,
2013-03-04 10:52:00,40.0,19.0,-100.00,SW,236,2.0,5.0,43,0.00,,,0.06,577.000000,,2013-03-04 15:52:00,
2013-03-04 11:03:00,40.0,19.0,-100.00,SW,236,2.0,5.0,43,0.00,,,0.06,577.000000,,2013-03-04 16:03:00,
2013-03-04 11:32:00,47.0,11.0,-100.00,SSE,156,2.0,6.0,23,0.00,,,0.01,757.000000,,2013-03-04 16:32:00,
2013-03-04 11:42:00,47.0,11.0,-100.00,SSE,156,2.0,6.0,23,0.00,,,0.01,757.000000,,2013-03-04 16:42:00,
2013-03-04 11:52:00,47.0,11.0,-100.00,SSE,156,2.0,6.0,23,0.00,,,0.01,757.000000,,2013-03-04 16:52:00,
2013-03-04 12:02:00,47.0,11.0,-100.00,SSE,156,2.0,6.0,23,0.00,,,0.01,757.000000,,2013-03-04 17:02:00,
2013-03-04 12:32:00,49.0,6.0,-100.00,West,263,5.0,9.0,17,0.00,,,0.00,872.000000,,2013-03-04 17:32:00,
2013-03-04 12:42:00,49.0,6.0,-100.00,West,263,5.0,9.0,17,0.00,,,0.00,872.000000,,2013-03-04 17:42:00,
2013-03-04 12:52:00,49.0,6.0,-100.00,West,263,5.0,9.0,17,0.00,,,0.00,872.000000,,2013-03-04 17:52:00,
2013-03-04 13:02:00,49.0,6.0,-100.00,West,263,5.0,9.0,17,0.00,,,0.00,872.000000,,2013-03-04 18:02:00,
2013-03-04 13:32:00,51.0,15.0,-100.00,West,260,4.0,7.0,23,0.00,,,0.00,762.000000,,2013-03-04 18:32:00,
2013-03-04 13:42:00,51.0,15.0,-100.00,West,260,4.0,7.0,23,0.00,,,0.00,762.000000,,2013-03-04 18:42:00,
2013-03-04 13:52:00,51.0,15.0,-100.00,West,260,4.0,7.0,23,0.00,,,0.00,762.000000,,2013-03-04 18:52:00,
2013-03-04 14:02:00,51.0,15.0,-100.00,West,260,4.0,7.0,23,0.00,,,0.00,762.000000,,2013-03-04 19:02:00,
2013-03-04 14:32:00,52.0,22.0,-100.00,North,359,2.0,7.0,30,0.00,,,0.00,592.000000,,2013-03-04 19:32:00,
2013-03-04 14:42:00,52.0,22.0,-100.00,North,359,2.0,7.0,30,0.00,,,0.00,592.000000,,2013-03-04 19:42:00,
2013-03-04 14:52:00,52.0,22.0,-100.00,North,359,2.0,7.0,30,0.00,,,0.00,592.000000,,2013-03-04 19:52:00,
2013-03-04 15:02:00,52.0,22.0,-100.00,North,359,2.0,7.0,30,0.00,,,0.00,592.000000,,2013-03-04 20:02:00,
2013-03-04 15:33:00,55.0,23.0,-100.00,NNE,17,3.0,9.0,29,0.00,,,0.00,613.000000,,2013-03-04 20:33:00,
2013-03-04 15:42:00,55.0,23.0,-100.00,NNE,17,3.0,9.0,29,0.00,,,0.00,613.000000,,2013-03-04 20:42:00,
2013-03-04 15:53:00,55.0,23.0,-100.00,NNE,17,3.0,9.0,29,0.00,,,0.00,613.000000,,2013-03-04 20:53:00,
2013-03-04 16:02:00,55.0,23.0,-100.00,NNE,17,3.0,9.0,29,0.00,,,0.00,613.000000,,2013-03-04 21:02:00,
2013-03-04 16:32:00,56.0,24.0,-100.00,NE,53,3.0,7.0,29,0.00,,,0.00,536.000000,,2013-03-04 21:32:00,
2013-03-04 16:43:00,56.0,24.0,-100.00,NE,53,3.0,7.0,29,0.00,,,0.00,536.000000,,2013-03-04 21:43:00,
2013-03-04 16:53:00,56.0,24.0,-100.00,NE,53,3.0,7.0,29,0.00,,,0.00,536.000000,,2013-03-04 21:53:00,
2013-03-04 17:02:00,56.0,24.0,-100.00,NE,53,3.0,7.0,29,0.00,,,0.00,536.000000,,2013-03-04 22:02:00,
2013-03-04 17:32:00,53.0,24.0,-100.00,SW,229,5.0,10.0,32,0.00,,,0.00,274.000000,,2013-03-04 22:32:00,
2013-03-04 17:43:00,53.0,24.0,-100.00,SW,229,5.0,10.0,32,0.00,,,0.00,274.000000,,2013-03-04 22:43:00,
2013-03-04 17:52:00,53.0,24.0,-100.00,SW,229,5.0,10.0,32,0.00,,,0.00,274.000000,,2013-03-04 22:52:00,
2013-03-04 18:02:00,53.0,24.0,-100.00,SW,229,5.0,10.0,32,0.00,,,0.00,274.000000,,2013-03-04 23:02:00,
2013-03-04 18:32:00,51.0,23.0,-100.00,SSE,165,4.0,8.0,33,0.00,,,0.00,129.000000,,2013-03-04 23:32:00,
2013-03-04 18:42:00,51.0,23.0,-100.00,SSE,165,4.0,8.0,33,0.00,,,0.00,129.000000,,2013-03-04 23:42:00,
2013-03-04 18:52:00,51.0,23.0,-100.00,SSE,165,4.0,8.0,33,0.00,,,0.00,129.000000,,2013-03-04 23:52:00,
2013-03-04 19:02:00,51.0,23.0,-100.00,SSE,165,4.0,8.0,33,0.00,,,0.00,129.000000,,2013-03-05 00:02:00,
2013-03-04 19:32:00,45.0,22.0,-100.00,ENE,76,0.0,6.0,40,0.00,,,0.00,7.000000,,2013-03-05 00:32:00,
2013-03-04 19:42:00,45.0,22.0,-100.00,ENE,76,0.0,6.0,40,0.00,,,0.00,7.000000,,2013-03-05 00:42:00,
2013-03-04 19:52:00,45.0,22.0,-100.00,ENE,76,0.0,6.0,40,0.00,,,0.00,7.000000,,2013-03-05 00:52:00,
2013-03-04 20:02:00,45.0,22.0,-100.00,ENE,76,0.0,6.0,40,0.00,,,0.00,7.000000,,2013-03-05 01:02:00,
2013-03-04 21:32:00,40.0,28.0,-100.00,ENE,58,0.0,5.0,63,-99.99,,,0.00,0.000000,,2013-03-05 02:32:00,
2013-03-04 21:42:00,40.0,28.0,-100.00,ENE,58,0.0,5.0,63,-99.99,,,0.00,0.000000,,2013-03-05 02:42:00,
2013-03-04 21:53:00,40.0,28.0,-100.00,ENE,58,0.0,5.0,63,-99.99,,,0.00,0.000000,,2013-03-05 02:53:00,
2013-03-04 22:02:00,40.0,28.0,-100.00,ENE,58,0.0,5.0,63,-99.99,,,0.00,0.000000,,2013-03-05 03:02:00,
2013-03-04 22:32:00,39.0,28.0,-100.00,ESE,110,1.0,7.0,65,0.00,,,0.00,0.000000,,2013-03-05 03:32:00,
2013-03-04 22:42:00,39.0,28.0,-100.00,ESE,110,1.0,7.0,65,0.00,,,0.00,0.000000,,2013-03-05 03:42:00,
2013-03-04 22:52:00,39.0,28.0,-100.00,ESE,110,1.0,7.0,65,0.00,,,0.00,0.000000,,2013-03-05 03:52:00,
2013-03-04 23:02:00,39.0,28.0,-100.00,ESE,110,1.0,7.0,65,0.00,,,0.00,0.000000,,2013-03-05 04:02:00,
2013-03-04 23:32:00,37.0,30.0,-100.00,East,101,1.0,5.0,76,0.00,,,0.00,0.000000,,2013-03-05 04:32:00,
2013-03-04 23:42:00,37.0,30.0,-100.00,East,101,1.0,5.0,76,0.00,,,0.00,0.000000,,2013-03-05 04:42:00,
2013-03-04 23:52:00,37.0,30.0,-100.00,East,101,1.0,5.0,76,0.00,,,0.00,0.000000,,2013-03-05 04:52:00,